GLOBALSTAR M073

Last updated on Sat Sep 05 2026 00:03:15 GMT+0000 (Coordinated Universal Time)

1 37193U 10054F 26247.56905036 -.00000096 00000+0 44444-4 0 9997 2 37193 52.0053 182.6538 0000372 92.7723 77.9951 12.62267879733950
UTC large
Height (km)
Speed (km/s)
/
Latitude / Longitude
Inclination (degrees)
Orbital Period (minutes)
Azimuth
Elevation
Range (km)
Doppler Factor

Next 0 passes for location: London (51.5072 / 0.1276)

No passes found over London.
GLOBALSTAR M073